Location: Blandford
(50.8667°N, 2.1667°W)
Time: 07:57:38
(UTC+00:00)

Cosmos 1606 Rocket - Pass Details

Date: 09 April 2020
Orbit: 602 x 633 km, 82.5° (Epoch: 01 June)

Event Time Altitude Azimuth Distance (km) Brightness Sun altitude
Rises 19:26:45 0° 181° (S) 2,899 6.8 -5.6°
Reaches altitude 10° 19:28:58 10° 178° (S) 2,001 6.0 -5.9°
Maximum altitude 19:33:22 66° 97° (E) 691 3.6 -6.6°
Drops below altitude 10° 19:37:50 10° 15° (NNE) 2,029 6.3 -7.2°
Sets 19:40:06 0° 13° (NNE) 2,943 7.2 -7.6°
